EW8320 Weather Reports


Display with metric or nautical units.
time (UTC)temp
F
wind
direction
speed
MPH
gust
MPH
rain 1hr
in
rain 24hr
in
rain mn
in
humidity
%
barometer
mb
20260502163713 52 270 0.0 0.0 0.00 0.00 0.00 46 1021.2
20260502162715 53 270 0.0 0.0 0.00 0.00 0.00 46 1021.3
20260502161716 51 180 0.0 0.0 0.00 0.00 0.00 49 1021.3
20260502151913 45 246 0.0 0.0 0.00 0.00 0.00 63 1021.5
20260502150914 44 245 0.0 0.0 0.00 0.00 0.00 63 1021.4
20260502140113 37 275 0.0 0.0 0.00 0.00 0.00 72 1021.0
20260502130213 36 262 0.0 0.0 0.00 0.00 0.00 75 1020.7
20260502123215 37 283 0.0 0.0 0.00 0.00 0.00 71 1020.7
20260502123113 37 263 0.0 0.0 0.00 0.00 0.00 70 1020.8
20260502122114 38 272 0.0 0.0 0.00 0.00 0.00 71 1020.6
20260502121113 37 278 0.0 0.0 0.00 0.00 0.00 72 1020.7
20260502120113 37 275 0.0 0.0 0.00 0.00 0.00 72 1020.6
20260502115115 38 257 0.0 0.0 0.00 0.00 0.00 71 1020.6
20260502114114 38 282 0.0 0.0 0.00 0.00 0.00 71 1020.8
20260502113113 38 269 0.0 0.0 0.00 0.00 0.00 72 1020.8
20260502112113 38 271 0.0 0.0 0.00 0.00 0.00 70 1020.8
20260502110212 39 274 0.0 0.0 0.00 0.00 0.00 68 1020.8
20260502110131 39 286 0.0 0.0 0.00 0.00 0.00 68 1020.7
20260502105214 39 278 0.0 0.0 0.00 0.00 0.00 68 1020.9
20260502104214 39 258 0.0 0.0 0.00 0.00 0.00 67 1020.9
20260502103215 39 268 0.0 0.0 0.00 0.00 0.00 66 1021.0
20260502102212 39 284 0.0 0.0 0.00 0.00 0.00 67 1021.0
20260502101214 38 275 0.0 0.0 0.00 0.00 0.00 68 1021.0
20260502100213 39 279 0.0 0.0 0.00 0.00 0.00 68 1020.7
20260502091314 39 199 0.0 0.0 0.00 0.00 0.00 70 1021.0
20260502090338 39 239 0.0 0.0 0.00 0.00 0.00 70 1020.9
20260502071513 38 253 0.0 0.0 0.00 0.00 0.00 78 1020.8
20260502070514 36 337 0.0 0.0 0.00 0.00 0.00 80 1020.7
20260502065422 43 90 0.0 0.0 0.00 0.00 0.00 91 1020.8
20260502064425 43 202 0.0 0.0 0.00 0.00 0.00 100 1020.7
20260502060522 39 225 0.0 0.0 0.00 0.00 0.00 75 1020.9
20260502055527 39 180 0.0 0.0 0.00 0.00 0.00 75 1020.6
20260502054525 39 135 0.0 0.0 0.00 0.00 0.00 76 1020.7
20260502052625 39 112 0.0 0.0 0.00 0.00 0.00 73 1020.7
20260502052524 39 112 0.0 0.0 0.00 0.00 0.00 73 1020.7
20260502051622 39 292 0.0 0.0 0.00 0.00 0.00 73 1020.7
20260502050646 40 337 0.0 0.0 0.00 0.00 0.00 72 1020.7
20260502045625 40 247 0.0 0.0 0.00 0.00 0.00 70 1020.8
20260502044626 45 247 0.0 0.0 0.00 0.00 0.00 66 1020.8
20260502043627 48 202 0.0 0.0 0.00 0.00 0.00 65 1020.8
20260502042723 49 202 0.0 0.0 0.00 0.00 0.00 66 1020.8
20260502041725 49 202 0.0 0.0 0.00 0.00 0.00 62 1020.7
20260502040723 51 202 0.0 0.0 0.00 0.00 0.00 60 1020.6
20260502035726 52 315 0.0 0.0 0.00 0.00 0.00 59 1020.5
20260502034725 53 337 0.0 0.0 0.00 0.00 0.00 58 1020.6
20260502034623 53 337 0.0 0.0 0.00 0.00 0.00 57 1020.5
20260502033624 57 90 0.0 0.0 0.00 0.00 0.00 52 1020.3
20260502032641 59 270 0.0 0.0 0.00 0.00 0.00 46 1020.2
20260502031640 58 292 0.0 0.0 0.00 0.00 0.00 49 1020.2
20260502030624 60 135 0.0 0.0 0.00 0.00 0.00 43 1020.0
20260502025624 62 292 0.0 0.0 0.00 0.00 0.00 38 1019.9
20260502024625 61 315 0.0 0.0 0.00 0.00 0.00 43 1019.7
20260502023627 59 337 0.0 0.0 0.00 0.00 0.00 53 1019.7
20260502022723 61 337 0.0 0.0 0.00 0.00 0.00 51 1019.7
20260502021723 63 315 0.0 0.0 0.00 0.00 0.00 45 1019.7
20260502020725 64 315 0.0 0.0 0.00 0.00 0.00 43 1019.7
20260502015822 64 315 0.0 0.0 0.00 0.00 0.00 45 1019.7
20260502014823 64 337 0.0 0.0 0.00 0.00 0.00 47 1019.7
20260502013824 66 306 0.0 0.0 0.00 0.00 0.00 44 1019.9
20260502012823 66 315 0.0 0.0 0.00 0.00 0.00 41 1019.8
20260502011824 67 315 0.0 0.0 0.00 0.00 0.00 39 1019.9
20260502010826 68 337 0.0 0.0 0.00 0.00 0.00 36 1019.9
20260502005824 68 337 0.0 0.0 0.00 0.00 0.00 33 1020.0
20260502003825 70 315 0.0 0.0 0.00 0.00 0.00 31 1020.0
20260502002842 70 76 0.0 0.0 0.00 0.00 0.00 31 1020.2
20260502001824 70 83 0.0 0.0 0.00 0.00 0.00 28 1020.3
20260502000825 71 95 0.0 0.0 0.00 0.00 0.00 30 1020.3
20260501235823 70 72 0.0 0.0 0.00 0.00 0.00 30 1020.3
20260501234823 70 82 0.0 0.0 0.00 0.00 0.00 31 1020.4
20260501233922 70 226 0.0 0.0 0.00 0.00 0.00 32 1020.6
20260501233021 69 105 0.0 0.0 0.00 0.00 0.00 30 1020.5
20260501231040 69 70 0.0 0.0 0.00 0.00 0.00 31 1020.8
20260501230025 69 77 0.0 0.0 0.00 0.00 0.00 30 1021.0
20260501224123 69 87 0.0 0.0 0.00 0.00 0.00 31 1021.2
20260501223123 69 102 0.0 0.0 0.00 0.00 0.00 32 1021.3
20260501222222 68 95 0.0 0.0 0.00 0.00 0.00 31 1021.3
20260501221222 69 89 0.0 0.0 0.00 0.00 0.00 32 1021.3
20260501215224 69 91 0.0 0.0 0.00 0.00 0.00 32 1021.5
20260501214223 69 106 0.0 0.0 0.00 0.00 0.00 31 1021.7
20260501213223 68 76 0.0 0.0 0.00 0.00 0.00 32 1021.8
20260501212222 68 118 0.0 0.0 0.00 0.00 0.00 32 1021.8
20260501205422 69 85 0.0 0.0 0.00 0.00 0.00 33 1021.8
20260501204439 69 119 0.0 0.0 0.00 0.00 0.00 33 1022.0
20260501203522 68 80 0.0 0.0 0.00 0.00 0.00 35 1022.1
20260501202524 69 127 0.0 0.0 0.00 0.00 0.00 35 1022.1
20260501201522 68 116 0.0 0.0 0.00 0.00 0.00 35 1022.2
20260501200524 68 107 0.0 0.0 0.00 0.00 0.00 38 1022.3
20260501195523 68 50 0.0 0.0 0.00 0.00 0.00 37 1022.2
20260501194524 68 90 0.0 0.0 0.00 0.00 0.00 39 1022.3
20260501194424 68 83 0.0 0.0 0.00 0.00 0.00 39 1022.3
20260501193423 67 98 0.0 0.0 0.00 0.00 0.00 40 1022.3
20260501192422 66 95 0.0 0.0 0.00 0.00 0.00 41 1022.5
20260501191438 66 102 0.0 0.0 0.00 0.00 0.00 43 1022.6
20260501190423 66 96 0.0 0.0 0.00 0.00 0.00 43 1022.7
20260501185424 65 107 0.0 0.0 0.00 0.00 0.00 43 1022.8
20260501184423 63 129 0.0 0.0 0.00 0.00 0.00 44 1023.0
20260501183423 60 101 0.0 0.0 0.00 0.00 0.00 45 1023.2
20260501182424 61 68 0.0 0.0 0.00 0.00 0.00 45 1023.3
20260501180422 60 90 0.0 0.0 0.00 0.00 0.00 46 1023.4
20260501175522 60 110 0.0 0.0 0.00 0.00 0.00 46 1023.5
20260501174523 60 85 0.0 0.0 0.00 0.00 0.00 47 1023.7
20260501173522 59 98 0.0 0.0 0.00 0.00 0.00 49 1023.7